INDOWIN99

Jackpot

Texas Poker Multi Jackpot System

Kini Telah hadir Jackpot SUPER ROYAL FLUSH

Kini Telah hadir Jackpot 2000 (khusus table VIP keatas).

Ikutilah global jackpot yang tersedia di system kami, dengan system jackpot terbaru dan pertama di indonesia, anda dapat membeli jackpot dengan harga 100 rupiah saja dan menangkan hadiahnya hingga puluhan juta rupiah.

Jackpot bukanlah suatu keharusan untuk dibeli, namun kami memberikan suatu fitur tambahan untuk member tercinta dari www.indowin99.info.

Terdapat tiga pilihan harga jackpot yang bisa anda beli yaitu :100,500,1000 dan 2000(khusus table VIP Keatas) rupiah.

Hadiah dari Multi jackpot system www.indowin99.info

  1. full house x 10 harga jackpot yang anda beli.
      (contoh:anda membeli 1000 maka:1000 X10 = 10.000)
  2. four of kind x 250 harga jackpot yang anda beli
      (contoh:anda membeli 1000 maka:1000 X250 = 250.000)
  3. Straight flush x 1200
      (contoh:anda membeli 1000 maka:1000 X1200 = 1.200.000)
  4. Royal flush x 10000 harga jackpot yang anda beli
      (contoh:anda membeli 1000 maka:1000 X10000 = 10.000.000)
  5. SUPER ROYAL FLUSH x 30000 harga jackpot yang anda beli
      (contoh:anda membeli 1000 maka:1000 X30000 = 30.000.000)

Kondisi kartu

  1. full house adalah kondisi kartu dimana kartu anda dan kartu tengah dengan total 7 kartu bisa mendapatkan nilai 5 kartu dengan kombinasi 1 tris(three of kind) dan 1 pair, contoh 3 kartu 10 dan 2 kartu 5
  2. Four of kind adalah kondisi kartu dimana kartu anda dan kartu tengah dengan total 7 kartu bisa mendapatkan nilai 5 kartu dengan kombinasi 4 kartu yang sama jumlah dan 1 kartu apapun juga contoh anda mendapatkan 4 buah kartu angka 3 dan 1 kartu apapun.
  3. Staright flush adalah kondisi kartu dimana kartu anda dan kartu tengah dengan total 7 kartu bisa mendapatkan nilai 5 kartu dengan kombinasi seri / staright dengan kembang yang sama contoh : urutan kartu dari angka 5, 6, 7, 8 , 9 10 dengan kembang yg sama misalnya as hati
  4. Royal flush adalah kondisi kartu dimana kartu anda dan kartu tengah dengan total 7 kartu bisa mendapatkan nilai 5 kartu dengan kombinasi seri / staright dengan kembang yang sama tetapi kartu tersebut haruslah dimulai dari 10. contoh 10, Queen, Jack, King dan aces dengan kembang yang sama
  5. Super Royal flush adalah kondisi kartu dimana Kedua kartu anda digabung dengan 3 kartu pertama meja haruslah royal flush. contoh kartu anda 10,Queen kembang sama dan 3 kartu pertama meja adalah Jack, King dan aces dengan kembang yang sama

Demikian adalah penjelasan dari Multi Jackpot www.indowin99.info terima kasih dan selamat bermain salam hoki dari kami

Texas Poker Jackpot Winner

TOP SUPER ROYAL FLUSH
No.TanggalNamaPriceWin
117/07 14:30RAIISS_AASuper Royal flush6,000,000
217/07 14:23LB995745Super Royal flush1,500,000
317/07 11:25YUS156Super Royal flush6,000,000
417/07 10:15INDRA146Super Royal flush1,500,000
517/07 07:55MAMSKI12Super Royal flush30,000,000
TOP ROYAL FLUSH
No.TanggalNamaPriceWin
117/07 20:12BOCAH444Royal flush10,000,000
217/07 19:39DHOOMSDAY2Royal flush2,000,000
317/07 19:31MEGALIT00Royal flush5,000,000
417/07 19:18E8D64840Royal flush2,000,000
517/07 19:06GILL9Royal flush10,000,000
TOP STRAIGHT FLUSH
No.TanggalNamaPriceWin
117/07 20:20SIKXXIStraight Flush600,000
217/07 20:19CRIS13Straight Flush2,400,000
317/07 20:17LALAKKOEStraight Flush240,000
417/07 20:17KEYSYALAHStraight Flush240,000
517/07 20:15WAMELAYStraight Flush600,000
LATEST JACKPOT
No.TanggalNamaPriceWin
117/07 20:22PUJA123456Full House5,000
217/07 20:22ANDROW11Four Of A Kind125,000
317/07 20:22KINARIAN16Full House2,000
417/07 20:22ARENA22Full House5,000
517/07 20:22MADKODIR90Full House10,000
617/07 20:22AMILDREDFull House1,000
717/07 20:22GX05UWXQFFFull House2,000
817/07 20:22JAWERS87Full House10,000
917/07 20:22B4K4580N0RFull House5,000
1017/07 20:22TOOUPEFull House2,000
1117/07 20:22TEMPIK77Full House2,000
1217/07 20:22SENSAMFull House10,000
1317/07 20:22AHOKT41Full House10,000
1417/07 20:22VISARUNOFull House2,000
1517/07 20:22HE260389Full House2,000
1617/07 20:22LANCELOT04Full House5,000
1717/07 20:22QZDWRZWRROFull House2,000
1817/07 20:22IBLIS82Full House5,000
1917/07 20:22LKTANCOFull House5,000
2017/07 20:22TIMBA99Full House5,000
2117/07 20:22TBHQ47Full House1,000
2217/07 20:22INENPOKERFull House10,000
2317/07 20:22GALABAGGGGFull House10,000
2417/07 20:22LO_L1XFull House2,000
2517/07 20:22P3MBAL4P00Full House1,000
2617/07 20:22WMUFTQ2JDRFull House10,000
2717/07 20:22DOMINICC90Full House1,000
2817/07 20:22LASTKING69Full House5,000
2917/07 20:22QUIN_QUINFull House2,000
3017/07 20:22WLJKSN17Four Of A Kind125,000
3117/07 20:22UNAYKINGFull House2,000
3217/07 20:22GGSER13Full House2,000
3317/07 20:21WEAPONSFull House1,000
3417/07 20:21HEX07Four Of A Kind50,000
3517/07 20:21MONANGFour Of A Kind50,000
3617/07 20:21LAYUR123Full House2,000
3717/07 20:21SUSILA83Four Of A Kind50,000
3817/07 20:21MRDEOI992DFour Of A Kind50,000
3917/07 20:21NIUS64Full House10,000
4017/07 20:21SIDEWOXXFull House2,000
4117/07 20:21JACPOTCOKFull House2,000
4217/07 20:21T4DUTAMAFull House2,000
4317/07 20:21XYD74BYHI8Full House2,000
4417/07 20:21LADOZA7Full House2,000
4517/07 20:21PSTMNAGFull House2,000
4617/07 20:21F5A1232DFull House10,000
4717/07 20:21TRISNA2Full House2,000
4817/07 20:21SUM9426Full House10,000
4917/07 20:21YAHMEDNAFull House2,000
5017/07 20:21GALII99Full House10,000

Domino Multi Jackpot System

Ikutilah global jackpot yang tersedia di system kami, dengan system jackpot terbaru dan pertama di indonesia, anda dapat membeli jackpot dengan harga 100 rupiah saja dan menangkan hadiahnya hingga puluhan juta rupiah.

Jackpot bukanlah suatu keharusan untuk dibeli, namun kami memberikan suatu fitur tambahan untuk member tercinta dari www.indowin99.info.

Terdapat tiga pilihan harga jackpot yang bisa anda beli yaitu :100,500 dan 1000 rupiah.

Hadiah dari Multi jackpot system www.indowin99.info

  1. Murni Kecil x 50 harga jackpot yang anda beli.
      (contoh:anda membeli 1000 maka:1000 X 50 = 50.000)
  2. Murni Besar x 50 harga jackpot yang anda beli
      (contoh:anda membeli 1000 maka:1000 X 50 = 50.000)
  3. BALAK x 100 harga jackpot yang anda beli
      (contoh:anda membeli 1000 maka:1000 X 100 = 100.000)
  4. ENAM DEWA x 6666 harga jackpot yang anda beli
      (contoh:anda membeli 1000 maka:1000 X 6666 = 6.666.000)

Demikian adalah penjelasan dari Multi Jackpot www.indowin99.info terima kasih dan selamat bermain salam hoki dari kami

Domino Jackpot Winner

TOP ENAM DEWA
No.TanggalNamaPriceWin
117/07 18:56OBUR17murni enam666,600
217/07 18:28F1GUmurni enam6,666,000
317/07 17:38CIHUYYY_9murni enam666,600
417/07 17:08TITAN25murni enam3,333,000
517/07 16:28V7MPGQT64Zmurni enam3,333,000
TOP BALAK
No.TanggalNamaPriceWin
117/07 20:21ACENGKOLILbalak50,000
217/07 20:20DM777115balak50,000
317/07 20:19AMPEANbalak100,000
417/07 20:17JOHNPLENGEbalak100,000
517/07 20:17R42426K9HJbalak100,000
LATEST JACKPOT
No.TanggalNamaPriceWin
117/07 20:21KONYING87murni kecil5,000
217/07 20:21ACENGKOLILbalak50,000
317/07 20:21QQJISONG24murni kecil50,000
417/07 20:21RZHmurni kecil50,000
517/07 20:20DM777115balak50,000
617/07 20:20ARKOL89murni kecil25,000
717/07 20:19DHANZJP698murni besar50,000
817/07 20:19AMPEANbalak100,000
917/07 20:19OGIE114murni besar25,000
1017/07 20:18NLYmurni kecil5,000
1117/07 20:18SUPERSAMBAmurni besar50,000
1217/07 20:17TUJUH01murni besar25,000
1317/07 20:17CARERA27murni kecil50,000
1417/07 20:17JOHNPLENGEbalak100,000
1517/07 20:17R42426K9HJbalak100,000
1617/07 20:17VJJJJJJmurni besar5,000
1717/07 20:17JURI8888murni kecil25,000
1817/07 20:17YOGII999balak100,000
1917/07 20:17WEW279murni kecil50,000
2017/07 20:16JAYUZ98lucky9910,000
2117/07 20:16G3M1NYmurni kecil25,000
2217/07 20:16WWLGR2Fmurni kecil50,000
2317/07 20:16A27INTA78676balak100,000
2417/07 20:16ALUNG157lucky9910,000
2517/07 20:15B3D0R_89murni kecil5,000
2617/07 20:15GALISTANDPbalak50,000
2717/07 20:15PLISSDONKmurni kecil50,000
2817/07 20:14MANBUTmurni besar50,000
2917/07 20:14AAYESHAmurni besar50,000
3017/07 20:14TUJUH01murni kecil25,000
3117/07 20:13PERCIL3lucky992,500
3217/07 20:12VERYVRmurni besar50,000
3317/07 20:12MANSOB13murni kecil50,000
3417/07 20:12BADEN6666murni kecil50,000
3517/07 20:11AGY45murni besar5,000
3617/07 20:11IVANPS123murni kecil50,000
3717/07 20:10KAKIDURNO1murni kecil50,000
3817/07 20:10HFP442BNUHlucky992,500
3917/07 20:10ARGO98murni kecil5,000
4017/07 20:10G430Lbalak10,000
4117/07 20:10COLIKUmurni kecil50,000
4217/07 20:10THAELASUmurni kecil25,000
4317/07 20:09ST4C4THOlucky9950,000
4417/07 20:09UNTUNG9091murni kecil50,000
4517/07 20:09OTONG1799murni kecil5,000
4617/07 20:09BTIKWINDA99murni kecil50,000
4717/07 20:09KIJOJOBODOmurni kecil50,000
4817/07 20:08VAI69murni kecil50,000
4917/07 20:08G3M1NYmurni besar25,000
5017/07 20:08T4DALDIKHANmurni kecil5,000

Ceme Multi Jackpot System

Jackpot dilihat dari gabungan kartu pemain dengan kartu bandar. Bandar harus membeli jackpot sebanyak jumlah player yang sedang duduk. Sebagai contoh bila terdapat 3 pemain duduk bermain, dan bandar memutuskan untuk membeli jackpot Rp 1.000, maka pada periode tersebut bandar akan membeli jackpot sebanyak 3xRp1.000 = Rp3.000.

Jackpot bukanlah suatu keharusan untuk dibeli, namun kami memberikan suatu fitur tambahan untuk member tercinta dari www.indowin99.info.

Terdapat tiga pilihan harga jackpot yang bisa anda beli yaitu :100,500 dan 1000 rupiah.

Hadiah dari Multi jackpot system www.indowin99.info

  1. Murni Kecil x 50 harga jackpot yang anda beli.
      (contoh:anda membeli 1000 maka:1000 X 50 = 50.000)
  2. Murni Besar x 50 harga jackpot yang anda beli
      (contoh:anda membeli 1000 maka:1000 X 50 = 50.000)
  3. BALAK x 200 harga jackpot yang anda beli
      (contoh:anda membeli 1000 maka:1000 X 200 = 200.000)
  4. ENAM DEWA x 6666 harga jackpot yang anda beli
      (contoh:anda membeli 1000 maka:1000 X 6666 = 6.666.000)

Demikian adalah penjelasan dari Multi Jackpot www.indowin99.info terima kasih dan selamat bermain salam hoki dari kami

Ceme Jackpot Winner

TOP ENAM DEWA
No.TanggalNamaPriceWin
117/07 19:59PET4ARUNGQmurni enam6,666,000
217/07 19:59YONGKRU44murni enam6,666,000
317/07 19:59BF0A2B2Bmurni enam6,666,000
417/07 19:36OYOT66murni enam6,666,000
517/07 19:13MICKYBALI1murni enam6,666,000
TOP BALAK
No.TanggalNamaPriceWin
117/07 20:21ADBEJObalak200,000
217/07 20:21M_DUITbalak100,000
317/07 20:21IYANPEEbalak20,000
417/07 20:21ROSTAM1234balak100,000
517/07 20:21MAFAZA_1balak100,000
LATEST JACKPOT
No.TanggalNamaPriceWin
117/07 20:22NURKEMImurni kecil5,000
217/07 20:22KENZI32murni kecil50,000
317/07 20:22CETING74murni kecil50,000
417/07 20:22SAINT85murni kecil50,000
517/07 20:22KOM3NK007murni kecil50,000
617/07 20:22GAL40murni kecil50,000
717/07 20:22ABC9899murni kecil50,000
817/07 20:21KUZARLDmurni kecil5,000
917/07 20:21KTUKU8TB8Tmurni besar50,000
1017/07 20:21CEPET900murni kecil5,000
1117/07 20:21SCV530RAEAmurni kecil25,000
1217/07 20:21MUSRKmurni besar25,000
1317/07 20:21FITWENmurni besar5,000
1417/07 20:21ADBEJOmurni kecil50,000
1517/07 20:21ZIO1992murni kecil50,000
1617/07 20:21ADBEJObalak200,000
1717/07 20:21JOKO373737murni besar5,000
1817/07 20:21M_DUITbalak100,000
1917/07 20:21DONYES08murni kecil25,000
2017/07 20:21TINIKARTImurni kecil50,000
2117/07 20:21IYANPEEbalak20,000
2217/07 20:21CMD79094murni besar50,000
2317/07 20:21ROSTAM1234balak100,000
2417/07 20:21ADO_83murni besar5,000
2517/07 20:21COROK71murni besar25,000
2617/07 20:21TOEDYmurni besar50,000
2717/07 20:21MAFAZA_1balak100,000
2817/07 20:21MAFAZA_1murni kecil25,000
2917/07 20:21MAFAZA_1murni kecil25,000
3017/07 20:21BETA8899murni kecil25,000
3117/07 20:20ROMILmurni kecil50,000
3217/07 20:20UL4Y168murni besar50,000
3317/07 20:20UL4Y168murni besar50,000
3417/07 20:20LB996617murni besar5,000
3517/07 20:20JJJAJAmurni kecil50,000
3617/07 20:20SOME55murni kecil25,000
3717/07 20:20PICACU66murni kecil25,000
3817/07 20:20DENDAY_20murni kecil50,000
3917/07 20:20SUTANPERMAmurni kecil50,000
4017/07 20:20DWTPANDI1993balak200,000
4117/07 20:20KAFFAH123murni besar25,000
4217/07 20:20QRIKKKmurni besar50,000
4317/07 20:20NOVA_77murni kecil50,000
4417/07 20:20TAVY7TUG77balak100,000
4517/07 20:19AMIN1777balak200,000
4617/07 20:19ABBIYU01murni kecil25,000
4717/07 20:19YONGKRU44murni kecil50,000
4817/07 20:19ARFAKmurni kecil50,000
4917/07 20:19NVRM0GW89Amurni kecil50,000
5017/07 20:19HOCKYLUCYmurni besar50,000